Find STARLINK-37693

NORAD ID: 799501216 Int'l Des: 2026-161M Constellation: starlink operational

現在のビュー

3D地球を読み込み中...

About STARLINK-37693

STARLINK-37693 (NORAD 799501216) is a starlink constellation satellite launched Jul 14, 2026

STARLINK-37693について

説明を読み込み中...

次回通過

Passes for default location (London). Set your location on the main map for personalized predictions.

高度履歴

Loading altitude history...

軌道要素

1 99999C 2026161M 26195.66437500 .00409240 00000-0 423210-4 0 1950
2 99999 53.1642 325.4352 0009390 280.7122 293.4219 16.09574662 12
Epoch: Jul 14, 2026 • Age: 8 hours